DW2258 Weather Reports


Display with metric or nautical units.
time (UTC)temp
F
wind
direction
speed
MPH
gust
MPH
rain 1hr
in
rain 24hr
in
rain mn
in
humidity
%
barometer
mb
20260504221633 48 171 5.0 16.0 0.00 0.01 0.00 81 1006.0
20260504220133 48 218 7.0 14.0 0.00 0.01 0.00 81 1005.8
20260504214654 49 206 8.0 18.0 0.00 0.01 0.00 80 1005.7
20260504213134 49 195 8.0 19.0 0.00 0.01 0.00 79 1005.8
20260504211635 49 242 9.0 16.0 0.00 0.01 0.00 79 1005.6
20260504210138 49 210 8.0 15.0 0.00 0.01 0.00 80 1005.6
20260504204700 49 233 8.0 12.0 0.00 0.03 0.00 79 1005.6
20260504203159 49 214 6.0 11.0 0.00 0.03 0.00 80 1005.4
20260504201638 49 250 8.0 12.0 0.00 0.03 0.00 78 1005.6
20260504200140 51 220 6.0 14.0 0.00 0.03 0.00 76 1005.5
20260504194643 51 213 9.0 15.0 0.00 0.04 0.00 77 1005.4
20260504193142 49 219 9.0 14.0 0.00 0.04 0.00 79 1005.7
20260504191642 48 239 8.0 15.0 0.00 0.04 0.00 80 1005.9
20260504190204 48 234 11.0 15.0 0.00 0.04 0.00 79 1006.2
20260504184627 48 247 11.0 16.0 0.00 0.07 0.00 81 1006.3
20260504183206 46 233 10.0 16.0 0.00 0.07 0.00 84 1006.3
20260504181626 46 245 14.0 23.0 0.00 0.07 0.00 84 1006.0
20260504180206 45 230 11.0 17.0 0.00 0.07 0.00 85 1005.8
20260504174645 45 228 11.0 19.0 0.00 0.12 0.00 84 1005.9
20260504173128 46 226 11.0 19.0 0.00 0.12 0.00 83 1005.8
20260504171627 47 241 9.0 16.0 0.00 0.12 0.00 82 1005.6
20260504170127 46 218 11.0 22.0 0.00 0.12 0.00 83 1005.6
20260504160130 47 207 7.0 11.0 0.00 0.17 0.00 81 1006.0
20260504150152 46 246 9.0 18.0 0.00 0.20 0.00 82 1007.0
20260504140135 46 229 10.0 18.0 0.00 0.26 0.00 79 1007.3
20260504130138 46 237 10.0 18.0 0.00 0.32 0.00 77 1007.5
20260504120202 44 268 13.0 19.0 0.00 0.37 0.00 79 1007.8
20260504110147 42 253 14.0 21.0 0.00 0.43 0.00 81 1007.6
20260504100151 42 253 13.0 18.0 0.00 0.48 0.00 81 1007.1
20260504090133 42 250 13.0 18.0 0.00 0.52 0.00 77 1006.7
20260504081657 45 311 16.0 26.0 0.00 0.57 0.00 67 1006.2
20260504080139 44 264 17.0 26.0 0.00 0.57 0.00 69 1006.1
20260504070143 42 266 15.0 22.0 0.00 0.60 0.00 73 1006.0
20260504060143 42 298 14.0 24.0 0.00 0.62 0.00 75 1005.2
20260504050127 42 291 12.0 19.0 0.00 0.63 0.00 77 1004.9
20260504044646 42 320 13.0 20.0 0.00 0.63 0.63 76 1004.9
20260504043145 42 302 10.0 20.0 0.00 0.63 0.63 77 1004.7
20260504041627 42 323 14.0 21.0 0.00 0.63 0.63 75 1004.6
20260504040127 42 329 14.0 21.0 0.00 0.63 0.63 76 1004.4
20260504034633 42 304 12.0 24.0 0.00 0.63 0.63 77 1004.3
20260504033132 42 293 13.0 20.0 0.00 0.63 0.63 78 1004.3
20260504031632 43 288 14.0 22.0 0.00 0.63 0.63 78 1004.0
20260504030131 43 310 12.0 22.0 0.01 0.63 0.63 79 1003.9
20260504024636 43 307 12.0 20.0 0.01 0.63 0.63 79 1003.7
20260504023136 43 316 11.0 19.0 0.01 0.63 0.63 80 1003.7
20260504021635 44 258 11.0 24.0 0.01 0.63 0.63 80 1003.6
20260504020137 44 294 11.0 18.0 0.00 0.62 0.62 87 1003.5
20260504014640 43 280 9.0 17.0 0.00 0.62 0.62 91 1003.4
20260504013140 43 290 8.0 13.0 0.00 0.62 0.62 91 1003.3
20260504011638 44 287 9.0 14.0 0.00 0.62 0.62 91 1003.2
20260504010139 44 283 9.0 17.0 0.00 0.62 0.62 91 1003.0
20260504004640 43 297 10.0 16.0 0.00 0.62 0.62 91 1002.6
20260504003144 43 274 10.0 17.0 0.00 0.62 0.62 91 1002.4
20260504001645 43 299 11.0 17.0 0.00 0.62 0.62 91 1002.2
20260504000206 43 315 9.0 17.0 0.00 0.62 0.62 91 1002.0
20260503234705 43 312 10.0 18.0 0.00 0.62 0.62 91 1001.7
20260503233128 43 326 8.0 20.0 0.00 0.62 0.62 91 1001.5
20260503231627 43 333 11.0 20.0 0.00 0.62 0.62 91 1001.3
20260503230146 43 341 11.0 21.0 0.00 0.62 0.62 92 1001.1
20260503224704 43 345 13.0 23.0 0.00 0.62 0.62 92 1000.9
20260503223143 43 272 13.0 25.0 0.00 0.62 0.62 92 1000.8